Location: Mississauga
(43.5802°N, 79.6166°W)
Time: 01:27:51
(UTC-04:00)

Cosmos 1437 Rocket - Visible Passes

Search period start: 06 May 2016 00:00
Search period end: 16 May 2016 00:00
Orbit: 510 x 566 km, 81.1° (Epoch: 05 May)

Date Brightness Start Highest point End Pass type
(mag) Time Alt. Az. Time Alt. Az. Time Alt. Az.
06 May 3.2 05:00:40 10° N 05:04:47 71° ENE 05:08:49 10° SSE visible
07 May 3.1 04:52:43 10° N 04:56:51 72° E 05:00:52 10° SSE visible
08 May 3.1 04:44:47 10° N 04:48:53 74° E 04:52:55 10° SSE visible
09 May 3.0 04:36:50 10° N 04:40:56 75° ENE 04:44:57 10° SSE visible
10 May 3.0 04:28:53 10° N 04:33:00 76° E 04:37:00 10° SSE visible
11 May 2.9 04:20:57 10° N 04:25:03 77° E 04:29:02 10° SSE visible
12 May 2.9 04:12:59 10° N 04:17:05 78° E 04:21:04 10° SSE visible
13 May 2.9 04:05:03 10° N 04:09:08 79° E 04:12:44 12° SSE visible
14 May 2.8 03:57:06 10° N 04:01:10 80° E 04:04:09 17° SSE visible
15 May 2.8 03:49:09 10° N 03:53:13 81° E 03:55:40 23° SSE visible
